Find Local Weather

World > North America > United States > Washington

Sunnyside, Washington Regional Weather

Lat: 46.32N, Lon: 120.01W
Wx Zone: WAZ027
Feedback
Expires:201804241900;;437844
ASUS46 KSEW 241810
RWRWA 

WASHINGTON REGIONAL WEATHER ROUNDUP
NATIONAL WEATHER SERVICE SEATTLE WA
1100 AM PDT TUE APR 24 2018

NOTE:"FAIR" INDICATES FEW OR NO CLOUDS BELOW 12,000 FEET WITH NO 
SIGNIFICANT WEATHER AND/OR OBSTRUCTIONS TO VISIBILITY.


WAZ026-027-041>044-520-521-241900-
EAST SLOPES
  
CITY           SKY/WX    TMP DP  RH WIND       PRES   REMARKS
OMAK           SUNNY     59  35  40 SE5       30.36F                  
6HR MIN TEMP:  35; 6HR MAX TEMP:  59;                                

WENATCHEE      MOSUNNY   57  31  37 VRB3      30.35F                  
6HR MIN TEMP:  38; 6HR MAX TEMP:  57;                                

ELLENSBURG     SUNNY     61  33  35 SW5       30.32F                  
6HR MIN TEMP:  32; 6HR MAX TEMP:  61;                                

YAKIMA         SUNNY     67  30  25 N6        30.32F                  
6HR MIN TEMP:  34; 6HR MAX TEMP:  68;                                

SUNNYSIDE ARPT CLEAR     63  37  37 N7        30.30F                  
6HR MIN TEMP:  31; 6HR MAX TEMP:  62;                                

YAKIMA TC      FAIR      64  26  23 NE13G20   30.30F                  
6HR MIN TEMP:  36; 6HR MAX TEMP:  64;                                

$$


SKY/WX - Weather  TMP - Temperature  DP - Dewpoint  RH - Relative Humidity
WIND - Wind Direction/Speed PRES - Barometric Pressure